[[{"header":{"parameterUnit":"m.s-1","parameterCategory":1,"la1":30.2991,"la2":30.254,"lo1":-89.0895,"lo2":-89.0444,"dy":0.0017,"dx":0.0017,"nx":28,"ny":28,"refTime":"2025-08-30T21:00:00:Z","depth":0,"parameterNumber":2,"parameterNumberName":"U-component_of_WINDS"},"data":[0,0,0,0,0,0,0,0,0,0,0,0,0,0,0,0,0,0,0,0,0,0,0,0,0,0,0,0,0,0,0,0,0,0,0,0,0,0,0,0,0,0,0,0,0,0,0,0,0,0,0,0,0,0,0,0,0,0,-1.9496,-1.9495,0,-1.9439,-1.9438,-1.9438,-1.9405,-1.9405,-1.9405,-1.9404,-1.9345,-1.9344,-1.9342,0,0,0,0,0,0,0,0,0,0,0,0,0,-1.9576,-1.9575,-1.9496,-1.9495,-1.9495,-1.9439,-1.9438,-1.9438,-1.9405,-1.9405,-1.9405,-1.9404,-1.9346,-1.9344,-1.9342,0,0,0,0,0,0,0,0,0,0,0,0,0,-1.9533,-1.9575,-1.9496,-1.9472,-1.9469,-1.9439,-1.9438,-1.9437,-1.9405,-1.9405,-1.9404,-1.9404,-1.9346,-1.9344,-1.9342,-1.9332,0,0,-1.9335,-1.9334,0,0,0,0,0,0,0,0,-1.9535,-1.953,-1.9476,-1.9473,-1.947,-1.9429,-1.9445,-1.9402,-1.9405,-1.9429,-1.9404,-1.9404,-1.9373,-1.9369,-1.9358,-1.933,-1.9327,-1.9335,-1.9334,-1.9333,-1.9332,0,0,0,0,0,0,0,-1.9538,-1.9532,-1.9473,-1.9475,-1.9472,-1.9463,-1.9457,-1.9437,-1.9403,-1.9427,-1.9424,-1.9418,-1.9372,-1.9361,-1.9357,-1.9326,-1.9335,-1.9333,-1.9332,-1.9331,-1.9287,-1.9287,0,0,0,0,0,0,-1.9545,-1.9535,-1.9475,-1.9472,-1.9503,-1.9462,-1.9455,-1.9442,-1.9403,-1.9397,-1.9418,-1.9417,-1.9365,-1.9359,-1.9355,-1.9341,-1.9333,-1.9331,-1.933,-1.9287,-1.9287,-1.9287,0,0,0,0,0,0,-1.9547,-1.954,-1.9478,-1.9502,-1.9494,-1.9461,-1.9447,-1.9441,-1.943,-1.9397,-1.939,-1.9414,-1.9364,-1.9358,-1.9338,-1.9339,-1.933,-1.9328,-1.9287,-1.9287,-1.9287,-1.9314,0,0,0,0,0,0,-1.9549,-1.9541,-1.9537,-1.9503,-1.9493,-1.9462,-1.9447,-1.944,-1.9427,-1.9424,-1.939,-1.9385,-1.9364,-1.9342,-1.9336,-1.9335,-1.9326,-1.9287,-1.9287,-1.9287,-1.9313,-1.9315,-1.9317,0,0,0,0,0,-1.9552,-1.9546,-1.9537,-1.953,-1.9487,-1.9462,-1.9457,-1.9433,-1.9427,-1.9423,-1.9401,-1.9386,-1.934,-1.934,-1.9333,-1.9332,-1.9286,-1.9287,-1.9287,-1.9312,-1.9314,-1.9317,0,0,0,0,0,0,-1.9581,-1.9542,-1.9531,-1.9513,-1.9492,-1.9457,-1.9451,-1.9436,-1.9415,-1.9414,-1.9385,-1.9378,-1.9361,-1.9345,-1.9346,-1.9321,-1.9311,-1.931,-1.9332,-1.9335,-1.9337,-1.9341,-1.9324,0,0,0,0,0,-1.9586,-1.9569,-1.9535,-1.9523,-1.9513,-1.9484,-1.9472,-1.9456,-1.9432,-1.9423,-1.9399,-1.9377,-1.9357,-1.9345,-1.9325,-1.931,-1.9303,-1.9306,-1.9308,-1.931,-1.9309,-1.9301,-1.9302,-1.9288,-1.9288,-1.9288,0,0,-1.9594,-1.9571,-1.9562,-1.9529,-1.951,-1.9493,-1.9476,-1.9459,-1.9447,-1.942,-1.94,-1.9383,-1.9356,-1.9339,-1.933,-1.9324,-1.9312,-1.931,-1.9312,-1.931,-1.9301,-1.9303,-1.9304,-1.9288,-1.9288,-1.9288,0,0,-1.9602,-1.9583,-1.9571,-1.9552,-1.9524,-1.9505,-1.9502,-1.947,-1.9457,-1.9437,-1.9417,-1.9402,-1.9368,-1.935,-1.9337,-1.9338,-1.9324,-1.9333,-1.9343,-1.9335,-1.9336,-1.9337,-1.9338,-1.9339,-1.9332,-1.9332,-1.9332,0,-1.9617,-1.9591,-1.9566,-1.9551,-1.9537,-1.9512,-1.95,-1.9484,-1.945,-1.9441,-1.9435,-1.9394,-1.9374,-1.9352,-1.9353,-1.9343,-1.9339,-1.9336,-1.9338,-1.9339,-1.9339,-1.934,-1.9341,-1.9334,-1.9333,-1.9333,-1.9333,0,-1.9611,-1.9594,-1.9587,-1.9557,-1.9542,-1.9528,-1.9501,-1.9489,-1.9474,-1.9456,-1.9436,-1.9411,-1.9386,-1.938,-1.9365,-1.9357,-1.9354,-1.9344,-1.9334,-1.9342,-1.9343,-1.9343,-1.9336,-1.9335,-1.9335,-1.9334,0,0,-1.9635,-1.9591,-1.9589,-1.9575,-1.9543,-1.9529,-1.9514,-1.949,-1.9481,-1.9459,-1.9446,-1.9419,-1.9409,-1.9394,-1.9377,-1.937,-1.9373,-1.936,-1.9359,-1.9364,-1.9364,-1.9372,-1.9373,-1.9364,-1.9363,-1.9363,-1.9366,0,-1.9638,-1.9611,-1.9588,-1.957,-1.9554,-1.953,-1.9518,-1.9496,-1.9479,-1.9463,-1.9443,-1.9425,-1.9413,-1.9404,-1.9396,-1.9375,-1.9373,-1.9374,-1.9352,-1.9351,-1.936,-1.9373,-1.9382,-1.9385,-1.9366,-1.9366,-1.9366,0,-1.9638,-1.9618,-1.9598,-1.9568,-1.956,-1.9549,-1.9526,-1.9511,-1.9486,-1.9474,-1.9457,-1.9439,-1.9423,-1.9415,-1.9392,-1.9394,-1.9383,-1.9371,-1.9371,-1.9368,-1.9359,-1.9371,-1.9386,-1.9387,-1.9366,-1.9366,-1.9366,0,-1.9659,-1.9626,-1.961,-1.9599,-1.9563,-1.9556,-1.9541,-1.9516,-1.9503,-1.9483,-1.9474,-1.9452,-1.944,-1.9423,-1.94,-1.9396,-1.938,-1.937,-1.937,-1.9371,-1.9368,-1.9368,-1.9382,-1.9361,-1.9361,-1.936,-1.936,0,-1.9665,-1.9654,-1.9619,-1.9609,-1.9596,-1.957,-1.9558,-1.954,-1.9519,-1.9505,-1.9483,-1.9471,-1.9441,-1.9426,-1.9407,-1.9392,-1.9386,-1.9376,-1.9372,-1.9378,-1.938,-1.9371,-1.9371,-1.9361,-1.9361,-1.9361,-1.9361,0,-1.9685,-1.9661,-1.9642,-1.9611,-1.9602,-1.9594,-1.9567,-1.9556,-1.9538,-1.9521,-1.9516,-1.9486,-1.9467,-1.9442,-1.9415,-1.9402,-1.9389,-1.9382,-1.9398,-1.9395,-1.9397,-1.9397,-1.9406,-1.9406,-1.9384,-1.9384,-1.9385,0,-1.9691,-1.9682,-1.9649,-1.9639,-1.9625,-1.9608,-1.9595,-1.9569,-1.9557,-1.9529,-1.9522,-1.9501,-1.9482,-1.9452,-1.9429,-1.9408,-1.94,-1.9405,-1.9397,-1.9404,-1.9401,-1.9402,-1.9401,-1.9407,-1.9407,-1.9407,-1.9407,0,-1.9704,-1.9693,-1.9675,-1.9654,-1.9639,-1.962,-1.9601,-1.9594,-1.9564,-1.9551,-1.9531,-1.9517,-1.9489,-1.9469,-1.9445,-1.9429,-1.9414,-1.941,-1.9409,-1.9416,-1.9426,-1.9421,-1.9403,-1.941,-1.941,-1.941,-1.9409,-1.9409,-1.9718,-1.9709,-1.9685,-1.9666,-1.9649,-1.9631,-1.962,-1.9601,-1.9583,-1.9559,-1.9545,-1.9526,-1.9502,-1.9468,-1.9454,-1.9438,-1.9432,-1.9431,-1.943,-1.9431,-1.9433,-1.9428,-1.9434,-1.9434,-1.9433,-1.9433,-1.9433,0,-1.973,-1.9713,-1.9696,-1.967,-1.9656,-1.9642,-1.9621,-1.9609,-1.9592,-1.9572,-1.9555,-1.9532,-1.9512,-1.9487,-1.9466,-1.9459,-1.9451,-1.9454,-1.9454,-1.9451,-1.9439,-1.9442,-1.946,-1.946,-1.946,-1.946,-1.946,-1.946,-1.9735,-1.9719,-1.9705,-1.9681,-1.9665,-1.9646,-1.9634,-1.9618,-1.9602,-1.9578,-1.9561,-1.9545,-1.9523,-1.95,-1.9482,-1.9475,-1.9468,-1.9474,-1.9465,-1.9454,-1.9452,-1.945,-1.9452,-1.9472,-1.9472,-1.9478,-1.9478,-1.9478]},{"header":{"parameterUnit":"m.s-1","parameterCategory":1,"la1":30.2991,"la2":30.254,"lo1":-89.0895,"lo2":-89.0444,"dy":0.0017,"dx":0.0017,"nx":28,"ny":28,"refTime":"2025-08-30T21:00:00:Z","depth":0,"parameterNumber":3,"parameterNumberName":"V-component_of_WINDS"},"data":[0,0,0,0,0,0,0,0,0,0,0,0,0,0,0,0,0,0,0,0,0,0,0,0,0,0,0,0,0,0,0,0,0,0,0,0,0,0,0,0,0,0,0,0,0,0,0,0,0,0,0,0,0,0,0,0,0,0,-2.0552,-2.0552,0,-2.0549,-2.0549,-2.0549,-2.055,-2.055,-2.055,-2.055,-2.0545,-2.0545,-2.0544,0,0,0,0,0,0,0,0,0,0,0,0,0,-2.0557,-2.0557,-2.0552,-2.0552,-2.0552,-2.0549,-2.0549,-2.0549,-2.055,-2.055,-2.055,-2.055,-2.0545,-2.0545,-2.0544,0,0,0,0,0,0,0,0,0,0,0,0,0,-2.0555,-2.0557,-2.0552,-2.0552,-2.0552,-2.0549,-2.0549,-2.0549,-2.055,-2.055,-2.055,-2.055,-2.0545,-2.0545,-2.0544,-2.054,0,0,-2.0543,-2.0543,0,0,0,0,0,0,0,0,-2.0555,-2.0555,-2.0552,-2.0552,-2.0552,-2.055,-2.0549,-2.0546,-2.055,-2.0551,-2.055,-2.055,-2.0546,-2.0546,-2.0545,-2.054,-2.054,-2.0543,-2.0543,-2.0543,-2.0543,0,0,0,0,0,0,0,-2.0555,-2.0555,-2.0551,-2.0552,-2.0552,-2.0552,-2.0552,-2.0548,-2.0548,-2.0551,-2.0551,-2.0551,-2.0546,-2.0545,-2.0545,-2.054,-2.0543,-2.0543,-2.0543,-2.0543,-2.0534,-2.0534,0,0,0,0,0,0,-2.0556,-2.0555,-2.0551,-2.0551,-2.0554,-2.0552,-2.0552,-2.0551,-2.0548,-2.0548,-2.0551,-2.0551,-2.0546,-2.0545,-2.0545,-2.0541,-2.0543,-2.0543,-2.0543,-2.0534,-2.0534,-2.0533,0,0,0,0,0,0,-2.0556,-2.0555,-2.0551,-2.0553,-2.0552,-2.0552,-2.0551,-2.0551,-2.055,-2.0548,-2.0548,-2.055,-2.0546,-2.0545,-2.0542,-2.0541,-2.0543,-2.0542,-2.0534,-2.0534,-2.0534,-2.0534,0,0,0,0,0,0,-2.0556,-2.0555,-2.0554,-2.0553,-2.0552,-2.0549,-2.055,-2.055,-2.0549,-2.055,-2.0547,-2.0547,-2.0546,-2.0543,-2.0542,-2.0541,-2.0542,-2.0534,-2.0534,-2.0534,-2.0534,-2.0534,-2.0534,0,0,0,0,0,-2.0556,-2.0553,-2.0554,-2.0553,-2.055,-2.0549,-2.0548,-2.0548,-2.0549,-2.0548,-2.0547,-2.0547,-2.0541,-2.0542,-2.0541,-2.054,-2.0534,-2.0534,-2.0534,-2.0534,-2.0534,-2.0534,0,0,0,0,0,0,-2.0552,-2.0553,-2.0553,-2.055,-2.0549,-2.0549,-2.0547,-2.0548,-2.0546,-2.0546,-2.0545,-2.0545,-2.0542,-2.0541,-2.0542,-2.0537,-2.0538,-2.0537,-2.0538,-2.0538,-2.0538,-2.0539,-2.0542,0,0,0,0,0,-2.0551,-2.055,-2.055,-2.0547,-2.0547,-2.0547,-2.0546,-2.0547,-2.0545,-2.0545,-2.0544,-2.0542,-2.0541,-2.0539,-2.0537,-2.0534,-2.0534,-2.0533,-2.0532,-2.0532,-2.0532,-2.0532,-2.0532,-2.0533,-2.0533,-2.0533,0,0,-2.0548,-2.0548,-2.0547,-2.0546,-2.0546,-2.0545,-2.0547,-2.0545,-2.0544,-2.0544,-2.0542,-2.0541,-2.054,-2.0537,-2.0536,-2.0536,-2.0532,-2.0532,-2.0532,-2.0532,-2.0532,-2.0532,-2.0532,-2.0533,-2.0533,-2.0533,0,0,-2.0543,-2.0543,-2.0541,-2.0541,-2.0542,-2.0542,-2.0542,-2.0541,-2.0541,-2.0539,-2.054,-2.0539,-2.0535,-2.0535,-2.0534,-2.0532,-2.0532,-2.0531,-2.053,-2.053,-2.053,-2.053,-2.053,-2.053,-2.0531,-2.0531,-2.0531,0,-2.0539,-2.0539,-2.054,-2.0539,-2.0539,-2.0541,-2.054,-2.0539,-2.0538,-2.0538,-2.0539,-2.0536,-2.0535,-2.0533,-2.0533,-2.0531,-2.0531,-2.0531,-2.053,-2.053,-2.053,-2.053,-2.053,-2.0531,-2.0531,-2.0531,-2.0531,0,-2.0535,-2.0535,-2.0533,-2.0534,-2.0534,-2.0533,-2.0534,-2.0534,-2.0535,-2.0535,-2.0534,-2.0533,-2.0532,-2.0531,-2.0531,-2.053,-2.053,-2.053,-2.0531,-2.053,-2.053,-2.053,-2.0531,-2.0531,-2.0531,-2.0531,0,0,-2.0526,-2.053,-2.0529,-2.0531,-2.0532,-2.0531,-2.0531,-2.0531,-2.0531,-2.0531,-2.0531,-2.0529,-2.053,-2.0529,-2.0529,-2.0529,-2.0529,-2.0529,-2.0529,-2.053,-2.0529,-2.053,-2.053,-2.0529,-2.0529,-2.0529,-2.053,0,-2.0522,-2.0522,-2.0525,-2.0524,-2.0524,-2.0527,-2.0527,-2.0527,-2.0528,-2.0528,-2.0529,-2.0528,-2.0529,-2.0529,-2.0529,-2.0529,-2.0529,-2.0529,-2.0529,-2.0529,-2.053,-2.053,-2.053,-2.053,-2.053,-2.053,-2.053,0,-2.0517,-2.0519,-2.0519,-2.0522,-2.0522,-2.0522,-2.0524,-2.0524,-2.0525,-2.0526,-2.0526,-2.0527,-2.0527,-2.0528,-2.0528,-2.0528,-2.0528,-2.0529,-2.0529,-2.0529,-2.053,-2.0531,-2.053,-2.0531,-2.053,-2.053,-2.053,0,-2.0513,-2.0514,-2.0515,-2.0516,-2.052,-2.052,-2.0521,-2.0523,-2.0523,-2.0524,-2.0525,-2.0526,-2.0526,-2.0526,-2.0528,-2.0528,-2.0528,-2.0529,-2.0529,-2.0529,-2.0529,-2.0529,-2.053,-2.0528,-2.0528,-2.0528,-2.0528,0,-2.0509,-2.0509,-2.0514,-2.0514,-2.0515,-2.0518,-2.0518,-2.0519,-2.0521,-2.0522,-2.0524,-2.0524,-2.0526,-2.0527,-2.0527,-2.0528,-2.0528,-2.0529,-2.0529,-2.0529,-2.0529,-2.053,-2.053,-2.0528,-2.0528,-2.0528,-2.0528,0,-2.0503,-2.0507,-2.0508,-2.0512,-2.0513,-2.0514,-2.0517,-2.0518,-2.0519,-2.0521,-2.0521,-2.0523,-2.0525,-2.0526,-2.0527,-2.0528,-2.053,-2.0529,-2.053,-2.053,-2.0531,-2.0531,-2.0532,-2.0532,-2.053,-2.053,-2.053,0,-2.0501,-2.0501,-2.0506,-2.0508,-2.051,-2.0511,-2.0513,-2.0516,-2.0517,-2.052,-2.0521,-2.0523,-2.0524,-2.0527,-2.0528,-2.053,-2.053,-2.053,-2.053,-2.0531,-2.0531,-2.0532,-2.0532,-2.053,-2.053,-2.053,-2.053,0,-2.0496,-2.0499,-2.0501,-2.0505,-2.0507,-2.0509,-2.0512,-2.0513,-2.0516,-2.0518,-2.052,-2.0522,-2.0525,-2.0527,-2.0529,-2.053,-2.0531,-2.0531,-2.0531,-2.0531,-2.0532,-2.0533,-2.053,-2.053,-2.053,-2.053,-2.053,-2.053,-2.0493,-2.0495,-2.0499,-2.0502,-2.0505,-2.0508,-2.051,-2.0512,-2.0515,-2.0518,-2.052,-2.0522,-2.0525,-2.0528,-2.0529,-2.0532,-2.0532,-2.0532,-2.0532,-2.0532,-2.0533,-2.0531,-2.0532,-2.0532,-2.0532,-2.0532,-2.0532,0,-2.049,-2.0494,-2.0497,-2.0501,-2.0504,-2.0506,-2.051,-2.0512,-2.0515,-2.0517,-2.052,-2.0523,-2.0526,-2.0529,-2.0531,-2.0533,-2.0533,-2.0533,-2.0533,-2.0534,-2.0532,-2.0532,-2.0533,-2.0533,-2.0533,-2.0533,-2.0533,-2.0533,-2.0489,-2.0492,-2.0495,-2.05,-2.0503,-2.0507,-2.0509,-2.0512,-2.0515,-2.0519,-2.0522,-2.0524,-2.0527,-2.053,-2.0533,-2.0534,-2.0535,-2.0535,-2.0536,-2.0534,-2.0534,-2.0534,-2.0534,-2.0535,-2.0535,-2.0538,-2.0538,-2.0538]}]]